Погода в Суворове

Россия / Нижегородская область     55°05′07″N   43°28′08″E
темп.,
°C
ветер,
м/с
пор.,
м/с
влажн.,
%
обл.,
%
осадки,
мм/ч
давл.,
гПа
погр.,
м
20 июня, вс
вс2000:00+16з35895 0.0 102493
03:00+15з22934 0.0 102441
06:00+18з23810 0.0 1024134
09:00+24з22615 0.0 1024546
12:00+27з22490 0.0 10231219
15:00+28з22450 0.0 10221370
18:00+26зюз23610 0.0 1022203
21:00+19зюз22770 0.0 102213
21 июня, пн
пн2100:00+18юз11865 0.0 102211
03:00+16зюз11895 0.0 102311
06:00+20юз117847 0.0 102377
09:00+26зюз22606 0.0 1023669
12:00+29зсз224711 0.0 10221449
15:00+29зсз2246100 0.0 10221829
18:00+28зюз126562 0.0 1021296
21:00+22юз228387 0.0 102211
22 июня, вт
вт2200:00+20ююз1183100 0.0 102311
03:00+19ююз1186100 0.0 102311
06:00+22юз1279100 0.0 102392
09:00+27юз12595 0.0 1023735
12:00+30зюз124431 0.0 10221886
15:00+31зсз12425 0.0 10222281
18:00+27ссв116677 0.0 102199
21:00+24ю117278 0.0 102111
23 июня, ср
ср2300:00+23ююз117580 0.0 102214
03:00+22юз117672 0.0 102211
06:00+23сз01771 0.0 102281
09:00+28сз11530 0.0 1022577
12:00+30сз22440 0.0 10221745
15:00+31ссз22380 0.0 10211692
18:00+29сз11588 0.1 1020111
21:00+23з12681 0.1 102122
24 июня, чт
чт2400:00+22з22770 0.1 102018
03:00+20сз22801 0.3 102114
06:00+23зсз23735 0.0 102198
09:00+28сз34580 0.0 1020495
12:00+30ссз34490 0.0 10201169
15:00+32ссз23440 0.0 10201779
18:00+31с12560 0.0 1019809
21:00+24зюз34780 0.0 101966